Regional Weather Roundup
Issued by NWS San Diego, CA

Home | Current Version | Previous Version | Text Only | Print | Product List | Glossary On
Versions: 1 2 3 4 5 6 7 8 9 10 11 12 13 14 15 16 17 18 19 20 21 22 23 24 25 26 27 28 29 30 31 32 33 34 35 36 37 38 39 40 41 42 43 44 45 46 47 48 49 50
000
ASUS46 KSGX 291511
RWRSGX

SAN DIEGO HOURLY WEATHER ROUNDUP
NATIONAL WEATHER SERVICE SAN DIEGO CA
800 AM PDT WED MAR 29 2017

NOTE: "FAIR" INDICATES FEW OR NO CLOUDS BELOW 12,000 FEET WITH NO
SIGNIFICANT WEATHER AND/OR OBSTRUCTIONS TO VISIBILITY.

CAZ042-043-060-061-PZZ750-775-291600-

GREATER SAN DIEGO AREA

CITY           SKY/WX    TMP DP  RH WIND       PRES   REMARKS
SAN DIEGO AP   MOSUNNY   59  41  51 N3        30.04R
NATIONAL CITY    N/A     52  45  78 CALM      30.04R
CHULA VISTA      N/A     54  45  71 E3        29.94R
IMPERIAL BEACH MOSUNNY   59  41  51 NE8       30.03R
BROWN FIELD    SUNNY     55  42  61 SE5       30.03R
MIRAMAR MCAS   MOSUNNY   61  43  51 CALM      30.02R
MONTGOMERY FLD SUNNY     58  41  53 CALM      30.03R

$$

NORTH SAN DIEGO COUNTY

CITY           SKY/WX    TMP DP  RH WIND       PRES   REMARKS
CAMP PENDLETON MOSUNNY   48  43  82 CALM      30.04R
OCEANSIDE AP   NOT AVBL
OCEANSIDE HBR    N/A     55  43  64 SE3       30.05R
CARLSBAD       SUNNY     58  44  60 E3        30.02R
DEL MAR          N/A     55  47  74 CALM      30.05R
LA JOLLA SCRIP   N/A     59  51  73 NE2       30.02R
FALLBROOK        N/A     56  42  59 CALM      30.02R
ESCONDIDO        N/A     53  45  73 NE3       30.05R
SAN MARCOS       N/A     55  44  66 CALM      30.04R
POWAY            N/A     51  45  78 CALM      30.05R

$$

EAST SAN DIEGO COUNTY

CITY           SKY/WX    TMP DP  RH WIND       PRES   REMARKS
RAMONA         SUNNY     49  42  77 E3        30.04R
SANTEE LAKES     N/A     47  43  86 CALM      30.03R
LA MESA          N/A     55  37  50 CALM      29.96R
JAMUL            N/A     53  38  56 CALM      30.04R
DESCANSO N       N/A     57  32  39 CALM      30.00R
CAMPO            N/A     56  29  35 NE8       30.03R

$$

ORANGE COUNTY AND THE LOS ANGELES BASIN

CITY           SKY/WX    TMP DP  RH WIND       PRES   REMARKS
JOHN WAYNE AP  MOSUNNY   59  44  57 CALM      30.03R
LAKE FOREST FR   N/A     56  33  41 CALM      29.92R
HUNTINGTON BCH   N/A     54  52  94 CALM      30.04R
LOS ALAMITOS   MOSUNNY   54  47  76 CALM      30.03R
FULLERTON      SUNNY     57  47  69 CALM      30.02R
LONG BEACH     SUNNY     57  49  74 CALM      30.03R
L.A. AP        MOSUNNY   59  54  83 CALM      30.04R
L.A. DOWNTOWN  SUNNY     60  49  66 CALM      30.03R

$$

THE INLAND EMPIRE

CITY           SKY/WX    TMP DP  RH WIND       PRES   REMARKS
CORONA         SUNNY     52  43  71 CALM      30.05R
CHINO          MOSUNNY   53  44  71 W5        30.05R
ONTARIO        MOSUNNY   62  34  35 N5        30.04R
SAN BERNARDINO MOSUNNY   57  28  33 CALM      30.05R
RIVERSIDE AP   SUNNY     58  36  43 SW3       30.04R
MORENO VALLEY    N/A     58  40  51 CALM      28.18R
MARCH ARB      SUNNY     50  43  75 SE5       30.06R
HORSETHIEF CYN   N/A     54  31  42 CALM      30.05R
PERRIS           N/A     47  42  82 SE1       30.10R
HEMET EAST       N/A     57  25  28 CALM      30.09R
FRENCH VALLEY  FAIR      50  37  62 CALM      30.07R
TEMECULA         N/A     46  42  88 CALM      30.12R

$$

SAN BERNARDINO AND RIVERSIDE COUNTY MOUNTAINS

CITY           SKY/WX    TMP DP  RH WIND       PRES   REMARKS
BIG BEAR AP    SUNNY     36  19  51 E6        30.25R WCI  31
ANGELUS OAKS     N/A     46  22  38 CALM      30.03R
PINE COVE        N/A     50  15  24 CALM      30.09R

$$

SOUTHERN DESERT INCLUDING THE COACHELLA VALLEY

CITY           SKY/WX    TMP DP  RH WIND       PRES   REMARKS
PALM SPRINGS   SUNNY     73  26  17 NW8G21    30.04R
PALM DESERT      N/A     76  35  22 CALM      29.92R
THERMAL        SUNNY     62  33  33 CALM      30.00R
BLYTHE         SUNNY     69  27  20 N12       30.05R
IMPERIAL AP    SUNNY     58  31  35 SW3       30.02R
EL CENTRO NAS  MOSUNNY   58  28  32 SW8       30.04R
YUMA AZ        SUNNY     69  27  20 NW12      30.01R
MEXICALI       SUNNY     66  23  19 NW5       30.03R

$$

UPPER DESERT

CITY           SKY/WX    TMP DP  RH WIND       PRES   REMARKS
VICTORVILLE AP SUNNY     48  30  49 CALM      30.15S
HESPERIA         N/A     49  27  43 CALM      30.28S
PALMDALE       SUNNY     44  35  70 W7        30.17R
LANCASTER      SUNNY     42  32  67 CALM      30.17R
EDWARDS AFB    MOSUNNY   41  31  65 CALM      30.15R
DAGGETT        SUNNY     51  31  46 W14       30.13R
29 PALMS N     SUNNY     55  22  27 E3        30.19R
NEEDLES        SUNNY     66  26  22 NW9       30.09R

$$

REGIONAL REPORTS

CITY           SKY/WX    TMP DP  RH WIND       PRES   REMARKS
SANTA BARBARA  SUNNY     54  44  69 CALM      30.03R
SANDBERG       SUNNY     54  24  31 N6        30.20R
LAS VEGAS NV   MOSUNNY   59  25  27 CALM      30.16R
PHOENIX AZ     MOSUNNY   62  29  28 SW3       29.98R
TIJUANA        SUNNY     55  39  54 CALM      30.05R
ENSENADA NW      N/A     60  32  34 W1        29.99R

$$

OFFSHORE ISLANDS

CITY           SKY/WX    TMP DP  RH WIND       PRES   REMARKS
CATALINA ARPT  SUNNY     69  28  21 NE6       30.06R
SAN CLEMENTE I PTSUNNY   59  51  75 CALM      30.05R
SAN NICOLAS IS MOSUNNY   59  45  59 W12       30.05R

$$

MARINE AND OFFSHORE BUOY REPORTS

STATION/POSITION SKY/WX   TEMP    WIND        PRES    VSBY  SWELL
                          AIR SEA DIR/SP/G                  HT/PER/DIR
                          (F)     (DEG/KT/KT) (MB)    (MI)  (FT/S/D)
TANNER BANKS               58 58  330/  8/ 10 1016.7R        10/290/17
S CLEMENTE BASIN           60 60  330/  4/  6 1016.5R         7/260/17
SAN NICOLAS IS.               57                N/A           8/300/15
SO. S. ROSA ISLA           57 55  310/ 16/ 17 1016.9R        10/290/17
W. S. BARBARA CH           57 54  330/ 14/ 17 1017.2R        11/290/16
M. S. BARBARA CH                                N/A           5/260/16
S. MONICA BASIN            60 60  340/  8/ 10 1016.6R         5/270/16
S PEDRO CHANNEL               58                N/A           3/270/17
CMP PENDLETON NS              60                N/A           2/240/18
OCEANSIDE OFFSHR              60                N/A           2/250/17
TORREY PINES OTR              62                N/A           3/270/17
POINT LOMA SOUTH              62                N/A           3/270/18

$$




USA.gov is the U.S. government's official web portal to all federal, state and local government web resources and services.